Time,TemperatureF,DewpointF,PressureIn,WindDirection,WindDirectionDegrees,WindSpeedMPH,WindSpeedGustMPH,Humidity,HourlyPrecipIn,Conditions,Clouds,dailyrainin,SoftwareType,DateUTC
2013-04-29 00:01:00,55.0,53.0,-100.00,ESE,121,1.0,4.0,92,-99.99,,,-99.99,,2013-04-29 07:01:00,
2013-04-29 00:11:00,55.0,53.0,-100.00,South,173,1.0,2.0,92,-99.99,,,-99.99,,2013-04-29 07:11:00,
2013-04-29 00:21:00,55.0,53.0,-100.00,ESE,113,1.0,3.0,93,-99.99,,,-99.99,,2013-04-29 07:21:00,
2013-04-29 00:31:00,55.0,53.0,-100.00,SE,128,1.0,2.0,93,-99.99,,,-99.99,,2013-04-29 07:31:00,
2013-04-29 00:41:00,55.0,53.0,-100.00,SE,127,1.0,2.0,93,-99.99,,,-99.99,,2013-04-29 07:41:00,
2013-04-29 00:52:00,55.0,53.0,-100.00,ESE,106,2.0,3.0,93,-99.99,,,-99.99,,2013-04-29 07:52:00,
2013-04-29 01:02:00,54.0,52.0,-100.00,ENE,66,1.0,3.0,94,-99.99,,,-99.99,,2013-04-29 08:02:00,
2013-04-29 01:11:00,55.0,53.0,-100.00,ENE,61,1.0,4.0,94,-99.99,,,-99.99,,2013-04-29 08:11:00,
2013-04-29 01:21:00,55.0,54.0,-100.00,East,84,1.0,3.0,95,-99.99,,,-99.99,,2013-04-29 08:21:00,
2013-04-29 01:31:00,54.0,53.0,-100.00,ENE,72,2.0,3.0,95,-99.99,,,-99.99,,2013-04-29 08:31:00,
2013-04-29 01:41:00,54.0,53.0,-100.00,ENE,61,2.0,5.0,95,-99.99,,,-99.99,,2013-04-29 08:41:00,
2013-04-29 01:51:00,54.0,53.0,-100.00,ENE,59,2.0,4.0,95,-99.99,,,-99.99,,2013-04-29 08:51:00,
2013-04-29 02:01:00,54.0,53.0,-100.00,ENE,65,2.0,4.0,95,-99.99,,,-99.99,,2013-04-29 09:01:00,
2013-04-29 02:11:00,54.0,53.0,-100.00,ENE,64,2.0,4.0,95,-99.99,,,-99.99,,2013-04-29 09:11:00,
2013-04-29 02:21:00,53.0,52.0,-100.00,ENE,65,2.0,5.0,95,-99.99,,,-99.99,,2013-04-29 09:21:00,
2013-04-29 02:32:00,53.0,52.0,-100.00,ENE,59,3.0,6.0,96,-99.99,,,-99.99,,2013-04-29 09:32:00,
2013-04-29 02:42:00,53.0,52.0,-100.00,NE,52,3.0,6.0,96,-99.99,,,-99.99,,2013-04-29 09:42:00,
2013-04-29 02:52:00,53.0,52.0,-100.00,NE,52,2.0,5.0,96,-99.99,,,-99.99,,2013-04-29 09:52:00,
2013-04-29 03:02:00,54.0,53.0,-100.00,NE,56,2.0,4.0,96,-99.99,,,-99.99,,2013-04-29 10:02:00,
2013-04-29 03:12:00,54.0,53.0,-100.00,NE,48,1.0,4.0,96,-99.99,,,-99.99,,2013-04-29 10:12:00,
2013-04-29 03:22:00,54.0,53.0,-100.00,NE,52,3.0,6.0,96,-99.99,,,-99.99,,2013-04-29 10:22:00,
2013-04-29 03:32:00,53.0,52.0,-100.00,ENE,57,3.0,6.0,95,-99.99,,,-99.99,,2013-04-29 10:32:00,
2013-04-29 03:42:00,53.0,52.0,-100.00,ENE,60,3.0,6.0,95,-99.99,,,-99.99,,2013-04-29 10:42:00,
2013-04-29 03:52:00,53.0,52.0,-100.00,NE,55,2.0,5.0,95,-99.99,,,-99.99,,2013-04-29 10:52:00,
2013-04-29 04:02:00,54.0,53.0,-100.00,NNE,22,1.0,5.0,95,-99.99,,,-99.99,,2013-04-29 11:02:00,
2013-04-29 04:12:00,54.0,53.0,-100.00,NE,37,1.0,4.0,95,-99.99,,,-99.99,,2013-04-29 11:12:00,
2013-04-29 04:21:00,53.0,52.0,-100.00,NE,52,2.0,5.0,95,-99.99,,,-99.99,,2013-04-29 11:21:00,
2013-04-29 04:31:00,53.0,52.0,-100.00,NNE,33,2.0,5.0,95,-99.99,,,-99.99,,2013-04-29 11:31:00,
2013-04-29 04:41:00,54.0,53.0,-100.00,NNW,334,0.0,1.0,95,-99.99,,,-99.99,,2013-04-29 11:41:00,
2013-04-29 04:52:00,54.0,52.0,-100.00,North,360,1.0,2.0,94,-99.99,,,-99.99,,2013-04-29 11:52:00,
2013-04-29 05:01:00,54.0,52.0,-100.00,NNW,333,0.0,1.0,94,-99.99,,,-99.99,,2013-04-29 12:01:00,
2013-04-29 05:11:00,54.0,52.0,-100.00,NW,318,1.0,2.0,94,-99.99,,,-99.99,,2013-04-29 12:11:00,
2013-04-29 05:21:00,53.0,51.0,-100.00,NNW,333,1.0,3.0,93,-99.99,,,-99.99,,2013-04-29 12:21:00,
2013-04-29 05:31:00,53.0,51.0,-100.00,NNW,332,1.0,3.0,93,-99.99,,,-99.99,,2013-04-29 12:31:00,
2013-04-29 05:41:00,53.0,51.0,-100.00,NNW,332,1.0,3.0,93,-99.99,,,-99.99,,2013-04-29 12:41:00,
2013-04-29 05:51:00,53.0,51.0,-100.00,NW,326,1.0,4.0,93,-99.99,,,-99.99,,2013-04-29 12:51:00,
2013-04-29 06:01:00,54.0,52.0,-100.00,West,270,1.0,2.0,93,-99.99,,,-99.99,,2013-04-29 13:01:00,
2013-04-29 06:11:00,53.0,51.0,-100.00,WNW,282,1.0,3.0,92,-99.99,,,-99.99,,2013-04-29 13:11:00,
2013-04-29 06:21:00,53.0,51.0,-100.00,NNW,328,1.0,3.0,92,-99.99,,,-99.99,,2013-04-29 13:21:00,
2013-04-29 06:31:00,53.0,51.0,-100.00,NW,312,1.0,4.0,93,-99.99,,,-99.99,,2013-04-29 13:31:00,
2013-04-29 06:42:00,53.0,51.0,-100.00,NW,324,1.0,2.0,93,-99.99,,,-99.99,,2013-04-29 13:42:00,
2013-04-29 06:52:00,53.0,51.0,-100.00,NW,326,1.0,3.0,92,-99.99,,,-99.99,,2013-04-29 13:52:00,
2013-04-29 07:01:00,53.0,51.0,-100.00,NW,326,1.0,3.0,92,-99.99,,,-99.99,,2013-04-29 14:01:00,
2013-04-29 07:11:00,53.0,51.0,-100.00,NNW,332,1.0,2.0,92,-99.99,,,-99.99,,2013-04-29 14:11:00,
2013-04-29 07:21:00,54.0,51.0,-100.00,NW,314,1.0,2.0,91,-99.99,,,-99.99,,2013-04-29 14:21:00,
2013-04-29 07:32:00,54.0,51.0,-100.00,NNW,332,1.0,3.0,90,-99.99,,,-99.99,,2013-04-29 14:32:00,
2013-04-29 07:42:00,54.0,51.0,-100.00,NW,306,1.0,2.0,90,-99.99,,,-99.99,,2013-04-29 14:42:00,
2013-04-29 07:51:00,55.0,52.0,-100.00,NW,311,1.0,2.0,89,-99.99,,,-99.99,,2013-04-29 14:51:00,
2013-04-29 08:01:00,55.0,52.0,-100.00,NW,311,1.0,2.0,89,-99.99,,,-99.99,,2013-04-29 15:01:00,
2013-04-29 08:12:00,55.0,52.0,-100.00,NW,315,1.0,2.0,88,-99.99,,,-99.99,,2013-04-29 15:12:00,
2013-04-29 08:21:00,56.0,52.0,-100.00,NNW,338,1.0,3.0,87,-99.99,,,-99.99,,2013-04-29 15:21:00,
2013-04-29 08:33:00,56.0,52.0,-100.00,North,4,1.0,3.0,86,-99.99,,,-99.99,,2013-04-29 15:33:00,
2013-04-29 08:42:00,57.0,53.0,-100.00,NE,39,1.0,2.0,86,-99.99,,,-99.99,,2013-04-29 15:42:00,
2013-04-29 08:52:00,57.0,53.0,-100.00,NNW,330,1.0,3.0,85,-99.99,,,-99.99,,2013-04-29 15:52:00,
2013-04-29 09:02:00,57.0,53.0,-100.00,WNW,296,1.0,3.0,85,-99.99,,,-99.99,,2013-04-29 16:02:00,
2013-04-29 09:12:00,57.0,53.0,-100.00,NNE,20,1.0,2.0,85,-99.99,,,-99.99,,2013-04-29 16:12:00,
2013-04-29 09:23:00,57.0,52.0,-100.00,WNW,288,1.0,3.0,84,-99.99,,,-99.99,,2013-04-29 16:23:00,
2013-04-29 09:32:00,58.0,53.0,-100.00,WNW,299,1.0,3.0,83,-99.99,,,-99.99,,2013-04-29 16:32:00,
2013-04-29 09:42:00,58.0,53.0,-100.00,ENE,58,1.0,3.0,83,-99.99,,,-99.99,,2013-04-29 16:42:00,
2013-04-29 09:52:00,58.0,53.0,-100.00,East,79,1.0,4.0,82,-99.99,,,-99.99,,2013-04-29 16:52:00,
2013-04-29 10:02:00,58.0,53.0,-100.00,East,79,1.0,4.0,82,-99.99,,,-99.99,,2013-04-29 17:02:00,
2013-04-29 10:11:00,59.0,53.0,-100.00,WSW,243,2.0,4.0,81,-99.99,,,-99.99,,2013-04-29 17:11:00,
2013-04-29 10:22:00,59.0,53.0,-100.00,South,185,1.0,3.0,81,-99.99,,,-99.99,,2013-04-29 17:22:00,
2013-04-29 10:32:00,59.0,53.0,-100.00,SW,227,1.0,4.0,80,-99.99,,,-99.99,,2013-04-29 17:32:00,
2013-04-29 10:42:00,61.0,54.0,-100.00,SW,225,2.0,6.0,77,-99.99,,,-99.99,,2013-04-29 17:42:00,
2013-04-29 10:52:00,62.0,54.0,-100.00,SSW,192,3.0,7.0,75,-99.99,,,-99.99,,2013-04-29 17:52:00,
2013-04-29 11:01:00,62.0,54.0,-100.00,SSW,192,3.0,7.0,75,-99.99,,,-99.99,,2013-04-29 18:01:00,
2013-04-29 11:12:00,62.0,54.0,-100.00,WSW,251,4.0,8.0,75,-99.99,,,-99.99,,2013-04-29 18:12:00,
2013-04-29 11:22:00,63.0,54.0,-100.00,SW,216,3.0,6.0,72,-99.99,,,-99.99,,2013-04-29 18:22:00,
2013-04-29 11:31:00,64.0,54.0,-100.00,South,189,3.0,8.0,70,-99.99,,,-99.99,,2013-04-29 18:31:00,
2013-04-29 11:41:00,65.0,54.0,-100.00,SSW,207,2.0,6.0,68,-99.99,,,-99.99,,2013-04-29 18:41:00,
2013-04-29 11:51:00,66.0,54.0,-100.00,West,260,2.0,6.0,66,-99.99,,,-99.99,,2013-04-29 18:51:00,
2013-04-29 12:01:00,66.0,54.0,-100.00,West,260,2.0,6.0,66,-99.99,,,-99.99,,2013-04-29 19:01:00,
2013-04-29 12:11:00,68.0,54.0,-100.00,SE,130,2.0,6.0,61,-99.99,,,-99.99,,2013-04-29 19:11:00,
2013-04-29 12:21:00,69.0,54.0,-100.00,South,187,2.0,6.0,58,-99.99,,,-99.99,,2013-04-29 19:21:00,
2013-04-29 12:31:00,69.0,54.0,-100.00,South,187,2.0,6.0,58,-99.99,,,-99.99,,2013-04-29 19:31:00,
2013-04-29 12:41:00,69.0,54.0,-100.00,South,187,2.0,6.0,58,-99.99,,,-99.99,,2013-04-29 19:41:00,
2013-04-29 12:51:00,72.0,54.0,-100.00,SSW,193,2.0,6.0,54,-99.99,,,-99.99,,2013-04-29 19:51:00,
2013-04-29 13:02:00,72.0,54.0,-100.00,SW,232,4.0,10.0,54,-99.99,,,-99.99,,2013-04-29 20:02:00,
2013-04-29 13:11:00,72.0,54.0,-100.00,South,178,2.0,8.0,54,-99.99,,,-99.99,,2013-04-29 20:11:00,
2013-04-29 13:21:00,72.0,54.0,-100.00,SW,216,4.0,8.0,54,-99.99,,,-99.99,,2013-04-29 20:21:00,
2013-04-29 13:32:00,71.0,54.0,-100.00,SSW,211,4.0,9.0,55,-99.99,,,-99.99,,2013-04-29 20:32:00,
2013-04-29 13:42:00,71.0,54.0,-100.00,WSW,246,3.0,8.0,55,-99.99,,,-99.99,,2013-04-29 20:42:00,
2013-04-29 13:51:00,73.0,54.0,-100.00,SSW,196,3.0,9.0,52,-99.99,,,-99.99,,2013-04-29 20:51:00,
2013-04-29 14:01:00,73.0,54.0,-100.00,SW,218,4.0,8.0,52,-99.99,,,-99.99,,2013-04-29 21:01:00,
2013-04-29 14:11:00,73.0,54.0,-100.00,SSW,208,3.0,7.0,52,-99.99,,,-99.99,,2013-04-29 21:11:00,
2013-04-29 14:21:00,73.0,54.0,-100.00,SSW,196,3.0,8.0,51,-99.99,,,-99.99,,2013-04-29 21:21:00,
2013-04-29 14:32:00,73.0,54.0,-100.00,SSW,195,3.0,7.0,51,-99.99,,,-99.99,,2013-04-29 21:32:00,
2013-04-29 14:42:00,73.0,54.0,-100.00,SSW,195,3.0,7.0,51,-99.99,,,-99.99,,2013-04-29 21:42:00,
2013-04-29 14:53:00,73.0,54.0,-100.00,SW,225,4.0,9.0,51,-99.99,,,-99.99,,2013-04-29 21:53:00,
2013-04-29 15:02:00,74.0,54.0,-100.00,WSW,237,5.0,10.0,50,-99.99,,,-99.99,,2013-04-29 22:02:00,
2013-04-29 15:13:00,73.0,54.0,-100.00,WSW,245,5.0,11.0,51,-99.99,,,-99.99,,2013-04-29 22:13:00,
2013-04-29 15:23:00,73.0,54.0,-100.00,WSW,241,5.0,12.0,52,-99.99,,,-99.99,,2013-04-29 22:23:00,
2013-04-29 15:32:00,73.0,54.0,-100.00,WSW,238,5.0,11.0,51,-99.99,,,-99.99,,2013-04-29 22:32:00,
2013-04-29 15:42:00,73.0,54.0,-100.00,WSW,242,4.0,10.0,51,-99.99,,,-99.99,,2013-04-29 22:42:00,
2013-04-29 15:52:00,74.0,54.0,-100.00,WSW,237,4.0,8.0,49,-99.99,,,-99.99,,2013-04-29 22:52:00,
2013-04-29 16:02:00,74.0,54.0,-100.00,SW,220,3.0,8.0,49,-99.99,,,-99.99,,2013-04-29 23:02:00,
2013-04-29 16:11:00,74.0,53.0,-100.00,SW,233,4.0,9.0,48,-99.99,,,-99.99,,2013-04-29 23:11:00,
2013-04-29 16:22:00,74.0,53.0,-100.00,WSW,246,5.0,10.0,48,-99.99,,,-99.99,,2013-04-29 23:22:00,
2013-04-29 16:31:00,74.0,54.0,-100.00,WSW,242,5.0,12.0,49,-99.99,,,-99.99,,2013-04-29 23:31:00,
2013-04-29 16:42:00,73.0,53.0,-100.00,WSW,243,6.0,11.0,50,-99.99,,,-99.99,,2013-04-29 23:42:00,
2013-04-29 16:52:00,73.0,53.0,-100.00,WSW,249,6.0,11.0,50,-99.99,,,-99.99,,2013-04-29 23:52:00,
2013-04-29 17:01:00,72.0,53.0,-100.00,WSW,242,6.0,11.0,51,-99.99,,,-99.99,,2013-04-30 00:01:00,
2013-04-29 17:11:00,72.0,53.0,-100.00,WSW,246,6.0,13.0,52,-99.99,,,-99.99,,2013-04-30 00:11:00,
2013-04-29 17:21:00,71.0,54.0,-100.00,WSW,246,6.0,11.0,54,-99.99,,,-99.99,,2013-04-30 00:21:00,
2013-04-29 17:31:00,70.0,53.0,-100.00,WSW,239,4.0,10.0,55,-99.99,,,-99.99,,2013-04-30 00:31:00,
2013-04-29 17:40:00,70.0,54.0,-100.00,WSW,242,4.0,10.0,56,-99.99,,,-99.99,,2013-04-30 00:40:00,
2013-04-29 17:41:00,70.0,53.0,-100.00,WSW,239,4.0,10.0,55,-99.99,,,-99.99,,2013-04-30 00:41:00,
2013-04-29 17:51:00,70.0,53.0,-100.00,WSW,239,4.0,10.0,55,-99.99,,,-99.99,,2013-04-30 00:51:00,
2013-04-29 18:01:00,70.0,54.0,-100.00,WSW,243,4.0,9.0,56,-99.99,,,-99.99,,2013-04-30 01:01:00,
2013-04-29 18:11:00,70.0,54.0,-100.00,WSW,242,4.0,10.0,56,-99.99,,,-99.99,,2013-04-30 01:11:00,
2013-04-29 18:21:00,70.0,54.0,-100.00,WSW,242,4.0,10.0,56,-99.99,,,-99.99,,2013-04-30 01:21:00,
2013-04-29 18:31:00,70.0,54.0,-100.00,WSW,242,4.0,10.0,56,-99.99,,,-99.99,,2013-04-30 01:31:00,
2013-04-29 18:52:00,68.0,54.0,-100.00,SSW,202,2.0,6.0,60,-99.99,,,-99.99,,2013-04-30 01:52:00,
2013-04-29 19:01:00,68.0,54.0,-100.00,SSW,202,2.0,6.0,60,-99.99,,,-99.99,,2013-04-30 02:01:00,
2013-04-29 19:11:00,68.0,54.0,-100.00,SSW,202,2.0,6.0,60,-99.99,,,-99.99,,2013-04-30 02:11:00,
2013-04-29 19:21:00,64.0,53.0,-100.00,WSW,244,3.0,7.0,68,-99.99,,,-99.99,,2013-04-30 02:21:00,
2013-04-29 19:31:00,62.0,52.0,-100.00,SW,234,3.0,5.0,71,-99.99,,,-99.99,,2013-04-30 02:31:00,
2013-04-29 19:41:00,62.0,52.0,-100.00,SW,234,3.0,5.0,71,-99.99,,,-99.99,,2013-04-30 02:41:00,
2013-04-29 19:50:00,58.0,52.0,-100.00,SSW,193,1.0,2.0,79,-99.99,,,-99.99,,2013-04-30 02:50:00,
2013-04-29 19:51:00,62.0,52.0,-100.00,SW,234,3.0,5.0,71,-99.99,,,-99.99,,2013-04-30 02:51:00,
2013-04-29 20:01:00,60.0,53.0,-100.00,SSW,200,2.0,4.0,77,-99.99,,,-99.99,,2013-04-30 03:01:00,
2013-04-29 20:11:00,60.0,53.0,-100.00,SSW,200,2.0,4.0,77,-99.99,,,-99.99,,2013-04-30 03:11:00,
2013-04-29 20:21:00,58.0,52.0,-100.00,SSW,193,1.0,2.0,79,-99.99,,,-99.99,,2013-04-30 03:21:00,
2013-04-29 20:33:00,58.0,52.0,-100.00,SSW,193,1.0,2.0,79,-99.99,,,-99.99,,2013-04-30 03:33:00,
2013-04-29 20:42:00,58.0,52.0,-100.00,SSW,193,1.0,2.0,79,-99.99,,,-99.99,,2013-04-30 03:42:00,
2013-04-29 23:01:00,57.0,53.0,-100.00,SSE,155,1.0,4.0,85,-99.99,,,-99.99,,2013-04-30 06:01:00,
2013-04-29 23:11:00,57.0,53.0,-100.00,SSE,155,1.0,4.0,85,-99.99,,,-99.99,,2013-04-30 06:11:00,
2013-04-29 23:21:00,57.0,53.0,-100.00,South,171,1.0,6.0,85,-99.99,,,-99.99,,2013-04-30 06:21:00,
2013-04-29 23:31:00,57.0,53.0,-100.00,South,171,1.0,6.0,85,-99.99,,,-99.99,,2013-04-30 06:31:00,
2013-04-29 23:41:00,57.0,53.0,-100.00,South,171,1.0,6.0,85,-99.99,,,-99.99,,2013-04-30 06:41:00,
2013-04-29 23:52:00,57.0,52.0,-100.00,SSE,167,1.0,4.0,84,-99.99,,,-99.99,,2013-04-30 06:52:00,